| time (UTC) | temp F | wind direction | speed MPH | gust MPH | rain 1hr in | rain 24hr in | rain mn in | humidity % | barometer mb |
| 20260504034543 | 53 | 0.0 | 1.0 | 0.00 | 0.00 | 0.00 | 79 | 1016.6 | |
| 20260504033534 | 53 | 315 | 1.0 | 2.0 | 0.00 | 0.00 | 0.00 | 80 | 1016.7 |
| 20260504032537 | 53 | 315 | 1.0 | 2.0 | 0.00 | 0.00 | 0.00 | 79 | 1016.8 |
| 20260504031538 | 54 | 0.0 | 1.0 | 0.00 | 0.00 | 0.00 | 78 | 1016.8 | |
| 20260504030539 | 54 | 338 | 1.0 | 2.0 | 0.00 | 0.00 | 0.00 | 77 | 1016.8 |
| 20260504025535 | 54 | 338 | 1.0 | 2.0 | 0.00 | 0.00 | 0.00 | 77 | 1016.7 |
| 20260504024550 | 54 | 0.0 | 1.0 | 0.00 | 0.00 | 0.00 | 76 | 1016.6 | |
| 20260504023552 | 55 | 0.0 | 1.0 | 0.00 | 0.00 | 0.00 | 76 | 1016.5 | |
| 20260504022538 | 55 | 0.0 | 2.0 | 0.00 | 0.00 | 0.00 | 74 | 1016.3 | |
| 20260504021536 | 55 | 338 | 1.0 | 3.0 | 0.00 | 0.00 | 0.00 | 73 | 1016.2 |
| 20260504020541 | 56 | 338 | 1.0 | 1.0 | 0.00 | 0.00 | 0.00 | 75 | 1016.0 |
| 20260504015542 | 56 | 0.0 | 2.0 | 0.00 | 0.00 | 0.00 | 74 | 1015.9 | |
| 20260504014534 | 57 | 0.0 | 0.0 | 0.00 | 0.00 | 0.00 | 74 | 1015.9 | |
| 20260504013538 | 58 | 0.0 | 2.0 | 0.00 | 0.00 | 0.00 | 74 | 1015.7 | |
| 20260504012536 | 59 | 0.0 | 1.0 | 0.00 | 0.00 | 0.00 | 71 | 1015.8 | |
| 20260504011537 | 59 | 0.0 | 2.0 | 0.00 | 0.00 | 0.00 | 70 | 1015.7 | |
| 20260504010539 | 60 | 0.0 | 1.0 | 0.00 | 0.00 | 0.00 | 68 | 1015.7 | |
| 20260504005535 | 61 | 0.0 | 1.0 | 0.00 | 0.00 | 0.00 | 65 | 1015.7 | |
| 20260504004541 | 61 | 0 | 1.0 | 2.0 | 0.00 | 0.00 | 0.00 | 63 | 1015.7 |
| 20260504003537 | 63 | 0 | 1.0 | 2.0 | 0.00 | 0.00 | 0.00 | 61 | 1015.6 |
| 20260504002534 | 64 | 315 | 1.0 | 2.0 | 0.00 | 0.00 | 0.00 | 57 | 1015.6 |
| 20260504001548 | 65 | 0.0 | 1.0 | 0.00 | 0.00 | 0.00 | 53 | 1015.5 | |
| 20260504000541 | 66 | 0.0 | 1.0 | 0.00 | 0.00 | 0.00 | 50 | 1015.6 | |
| 20260503235540 | 67 | 0.0 | 2.0 | 0.00 | 0.00 | 0.00 | 48 | 1015.6 | |
| 20260503234545 | 68 | 315 | 2.0 | 4.0 | 0.00 | 0.00 | 0.00 | 44 | 1015.6 |
| 20260503233540 | 68 | 315 | 2.0 | 4.0 | 0.00 | 0.00 | 0.00 | 44 | 1015.6 |
| 20260503232544 | 68 | 315 | 1.0 | 3.0 | 0.00 | 0.00 | 0.00 | 43 | 1015.6 |
| 20260503231538 | 68 | 315 | 2.0 | 5.0 | 0.00 | 0.00 | 0.00 | 43 | 1015.6 |
| 20260503230533 | 67 | 315 | 3.0 | 10.0 | 0.00 | 0.00 | 0.00 | 43 | 1015.6 |
| 20260503225538 | 67 | 315 | 2.0 | 4.0 | 0.00 | 0.00 | 0.00 | 42 | 1015.7 |
| 20260503224541 | 68 | 338 | 2.0 | 5.0 | 0.00 | 0.00 | 0.00 | 46 | 1015.8 |
| 20260503223543 | 69 | 315 | 3.0 | 9.0 | 0.00 | 0.00 | 0.00 | 40 | 1015.7 |
| 20260503222539 | 69 | 338 | 2.0 | 4.0 | 0.00 | 0.00 | 0.00 | 42 | 1015.9 |
| 20260503221535 | 69 | 293 | 2.0 | 5.0 | 0.00 | 0.00 | 0.00 | 40 | 1016.0 |
| 20260503220537 | 69 | 338 | 2.0 | 6.0 | 0.00 | 0.00 | 0.00 | 41 | 1016.0 |
| 20260503215535 | 69 | 315 | 3.0 | 8.0 | 0.00 | 0.00 | 0.00 | 39 | 1016.1 |
| 20260503214537 | 69 | 315 | 3.0 | 8.0 | 0.00 | 0.00 | 0.00 | 40 | 1016.2 |
| 20260503213541 | 68 | 225 | 3.0 | 8.0 | 0.00 | 0.00 | 0.00 | 42 | 1016.2 |
| 20260503212537 | 69 | 293 | 2.0 | 8.0 | 0.00 | 0.00 | 0.00 | 39 | 1016.4 |
| 20260503211535 | 69 | 315 | 2.0 | 6.0 | 0.00 | 0.00 | 0.00 | 41 | 1016.4 |
| 20260503210543 | 68 | 315 | 3.0 | 8.0 | 0.00 | 0.00 | 0.00 | 41 | 1016.6 |
| 20260503205541 | 68 | 315 | 2.0 | 6.0 | 0.00 | 0.00 | 0.00 | 40 | 1016.7 |
| 20260503204550 | 67 | 315 | 4.0 | 8.0 | 0.00 | 0.00 | 0.00 | 42 | 1016.9 |
| 20260503203549 | 66 | 248 | 3.0 | 7.0 | 0.00 | 0.00 | 0.00 | 44 | 1017.0 |
| 20260503202549 | 66 | 225 | 7.0 | 11.0 | 0.00 | 0.00 | 0.00 | 45 | 1017.1 |
| 20260503201538 | 66 | 225 | 4.0 | 9.0 | 0.00 | 0.00 | 0.00 | 48 | 1017.3 |
| 20260503200537 | 66 | 248 | 3.0 | 8.0 | 0.00 | 0.00 | 0.00 | 47 | 1017.4 |
| 20260503195542 | 65 | 225 | 6.0 | 10.0 | 0.00 | 0.00 | 0.00 | 49 | 1017.6 |
| 20260503194540 | 65 | 248 | 5.0 | 12.0 | 0.00 | 0.00 | 0.00 | 49 | 1017.9 |
| 20260503193537 | 65 | 248 | 4.0 | 11.0 | 0.00 | 0.00 | 0.00 | 50 | 1018.1 |
| 20260503192539 | 65 | 248 | 4.0 | 11.0 | 0.00 | 0.00 | 0.00 | 53 | 1018.2 |
| 20260503191541 | 63 | 225 | 7.0 | 11.0 | 0.00 | 0.00 | 0.00 | 51 | 1018.6 |
| 20260503190535 | 63 | 225 | 9.0 | 12.0 | 0.00 | 0.00 | 0.00 | 49 | 1018.8 |
| 20260503185540 | 63 | 225 | 3.0 | 5.0 | 0.00 | 0.00 | 0.00 | 46 | 1018.9 |
| 20260503184535 | 63 | 225 | 3.0 | 7.0 | 0.00 | 0.00 | 0.00 | 47 | 1019.0 |
| 20260503183536 | 62 | 225 | 6.0 | 10.0 | 0.00 | 0.00 | 0.00 | 48 | 1019.1 |
| 20260503182538 | 63 | 248 | 3.0 | 10.0 | 0.00 | 0.00 | 0.00 | 47 | 1019.2 |
| 20260503181536 | 63 | 225 | 3.0 | 10.0 | 0.00 | 0.00 | 0.00 | 52 | 1019.2 |
| 20260503180546 | 61 | 225 | 8.0 | 13.0 | 0.00 | 0.00 | 0.00 | 53 | 1019.4 |
| 20260503175549 | 61 | 225 | 5.0 | 11.0 | 0.00 | 0.00 | 0.00 | 50 | 1019.5 |
| 20260503174549 | 60 | 225 | 6.0 | 11.0 | 0.00 | 0.00 | 0.00 | 53 | 1019.6 |
| 20260503173539 | 59 | 180 | 2.0 | 6.0 | 0.00 | 0.00 | 0.00 | 53 | 1019.8 |
| 20260503172547 | 59 | 158 | 3.0 | 7.0 | 0.00 | 0.00 | 0.00 | 54 | 1019.9 |
| 20260503171535 | 59 | 180 | 4.0 | 9.0 | 0.00 | 0.00 | 0.00 | 52 | 1020.0 |
| 20260503170534 | 59 | 225 | 2.0 | 4.0 | 0.00 | 0.00 | 0.00 | 54 | 1020.2 |
| 20260503150534 | 55 | 113 | 4.0 | 9.0 | 0.00 | 0.00 | 0.00 | 64 | 1020.8 |
| 20260503130535 | 53 | 68 | 2.0 | 6.0 | 0.00 | 0.00 | 0.00 | 76 | 1020.6 |
| 20260503110537 | 45 | 338 | 1.0 | 2.0 | 0.00 | 0.01 | 0.00 | 89 | 1019.4 |
| 20260503081546 | 49 | 0 | 2.0 | 3.0 | 0.00 | 0.02 | 0.00 | 80 | 1018.3 |
| 20260503080551 | 49 | 315 | 1.0 | 5.0 | 0.00 | 0.02 | 0.00 | 82 | 1018.2 |
| 20260503072536 | 50 | 0.0 | 2.0 | 0.00 | 0.02 | 0.00 | 80 | 1017.9 | |
| 20260503071537 | 50 | 0.0 | 1.0 | 0.00 | 0.02 | 0.00 | 78 | 1017.8 | |
| 20260503070539 | 50 | 0.0 | 2.0 | 0.00 | 0.02 | 0.00 | 78 | 1017.7 | |
| 20260503054550 | 53 | 0.0 | 1.0 | 0.00 | 0.03 | 0.00 | 72 | 1017.6 | |
| 20260503053545 | 53 | 0.0 | 1.0 | 0.00 | 0.03 | 0.00 | 71 | 1017.4 | |
| 20260503052551 | 53 | 0.0 | 2.0 | 0.00 | 0.03 | 0.00 | 70 | 1017.4 | |
| 20260503051546 | 53 | 23 | 1.0 | 3.0 | 0.00 | 0.03 | 0.00 | 68 | 1017.2 |
| 20260503050550 | 54 | 23 | 1.0 | 2.0 | 0.00 | 0.03 | 0.00 | 67 | 1017.2 |
| 20260503045553 | 54 | 0.0 | 1.0 | 0.00 | 0.03 | 0.03 | 68 | 1017.1 | |
| 20260503044545 | 54 | 23 | 2.0 | 5.0 | 0.00 | 0.03 | 0.03 | 65 | 1017.0 |
| 20260503043540 | 54 | 23 | 1.0 | 3.0 | 0.00 | 0.03 | 0.03 | 65 | 1017.0 |
| 20260503042542 | 55 | 23 | 2.0 | 4.0 | 0.00 | 0.03 | 0.03 | 65 | 1016.9 |
| 20260503041536 | 55 | 23 | 1.0 | 4.0 | 0.00 | 0.03 | 0.03 | 66 | 1016.9 |
| 20260503040545 | 55 | 23 | 1.0 | 4.0 | 0.00 | 0.04 | 0.03 | 64 | 1016.9 |
| 20260503035535 | 55 | 23 | 1.0 | 3.0 | 0.00 | 0.04 | 0.03 | 63 | 1016.8 |